Time,TemperatureF,DewpointF,PressureIn,WindDirection,WindDirectionDegrees,WindSpeedMPH,WindSpeedGustMPH,Humidity,HourlyPrecipIn,Conditions,Clouds,dailyrainin,SoftwareType,DateUTC
2013-01-06 00:04:00,42.5,28.8,30.17,SW,225,1.0,0.0,58,0.00,,SKC,0.00,VWS V14.01,2013-01-06 05:04:00,
2013-01-06 00:06:00,42.5,28.8,30.17,SW,224,0.0,0.0,58,0.00,,SKC,0.00,VWS V14.01,2013-01-06 05:06:00,
2013-01-06 00:12:00,42.3,28.6,30.17,SW,225,1.0,0.0,58,0.00,,SKC,0.00,VWS V14.01,2013-01-06 05:12:00,
2013-01-06 00:18:00,42.2,28.9,30.16,SSE,162,0.0,0.0,59,0.00,,SKC,0.00,VWS V14.01,2013-01-06 05:18:00,
2013-01-06 00:24:00,42.0,29.1,30.16,SSW,197,0.0,0.0,60,0.00,,SKC,0.00,VWS V14.01,2013-01-06 05:24:00,
2013-01-06 00:30:00,41.8,29.4,30.15,SSW,197,0.0,0.0,61,0.00,,SKC,0.00,VWS V14.01,2013-01-06 05:30:00,
2013-01-06 00:36:00,41.6,29.6,30.15,SE,146,0.0,0.0,62,0.00,,SKC,0.00,VWS V14.01,2013-01-06 05:36:00,
2013-01-06 00:41:00,41.4,29.8,30.15,SSE,153,1.0,0.0,63,0.00,,SKC,0.00,VWS V14.01,2013-01-06 05:41:00,
2013-01-06 00:46:00,41.3,30.1,30.15,SW,215,1.0,0.0,64,0.00,,SKC,0.00,VWS V14.01,2013-01-06 05:46:00,
2013-01-06 00:51:00,41.3,30.4,30.16,SW,224,0.0,0.0,65,0.00,,SKC,0.00,VWS V14.01,2013-01-06 05:51:00,
2013-01-06 00:56:00,41.2,30.7,30.16,SW,228,1.0,0.0,66,0.00,,SKC,0.00,VWS V14.01,2013-01-06 05:56:00,
2013-01-06 01:01:00,41.1,30.6,30.16,WSW,253,0.0,0.0,66,0.00,,SKC,0.00,VWS V14.01,2013-01-06 06:01:00,
2013-01-06 01:06:00,41.1,31.0,30.17,WSW,251,0.0,0.0,67,0.00,,SKC,0.00,VWS V14.01,2013-01-06 06:06:00,
2013-01-06 01:11:00,40.9,31.5,30.17,WSW,252,0.0,0.0,69,0.00,,SKC,0.00,VWS V14.01,2013-01-06 06:11:00,
2013-01-06 01:16:00,40.6,32.0,30.17,WSW,252,0.0,0.0,71,0.00,,SKC,0.00,VWS V14.01,2013-01-06 06:16:00,
2013-01-06 01:21:00,40.3,31.7,30.17,WSW,245,0.0,0.0,71,0.00,,SKC,0.00,VWS V14.01,2013-01-06 06:21:00,
2013-01-06 01:26:00,40.1,31.5,30.16,WSW,238,0.0,0.0,71,0.00,,SKC,0.00,VWS V14.01,2013-01-06 06:26:00,
2013-01-06 01:31:00,40.0,31.4,30.17,SW,236,0.0,0.0,71,0.00,,SKC,0.00,VWS V14.01,2013-01-06 06:31:00,
2013-01-06 01:36:00,39.9,31.6,30.16,WSW,240,0.0,0.0,72,0.00,,SKC,0.00,VWS V14.01,2013-01-06 06:36:00,
2013-01-06 01:41:00,39.8,31.9,30.16,WSW,240,0.0,0.0,73,0.00,,SKC,0.00,VWS V14.01,2013-01-06 06:41:00,
2013-01-06 01:46:00,39.6,32.0,30.16,WSW,240,0.0,0.0,74,0.00,,SKC,0.00,VWS V14.01,2013-01-06 06:46:00,
2013-01-06 01:51:00,39.5,32.6,30.17,WSW,240,0.0,0.0,76,0.00,,SKC,0.00,VWS V14.01,2013-01-06 06:51:00,
2013-01-06 01:57:00,39.3,32.7,30.17,SW,226,0.0,0.0,77,0.00,,SKC,0.00,VWS V14.01,2013-01-06 06:57:00,
2013-01-06 02:03:00,39.2,32.9,30.16,SE,144,1.0,0.0,78,0.00,,SKC,0.00,VWS V14.01,2013-01-06 07:03:00,
2013-01-06 02:09:00,39.0,32.7,30.16,SSE,155,1.0,0.0,78,0.00,,SKC,0.00,VWS V14.01,2013-01-06 07:09:00,
2013-01-06 02:15:00,38.9,33.0,30.16,SSW,197,1.0,0.0,79,0.01,,SKC,0.01,VWS V14.01,2013-01-06 07:15:00,
2013-01-06 02:21:00,38.8,33.5,30.16,SSW,198,2.0,0.0,81,0.01,,SKC,0.01,VWS V14.01,2013-01-06 07:21:00,
2013-01-06 02:26:00,38.7,33.1,30.16,SSW,203,1.0,0.0,80,0.01,,SKC,0.01,VWS V14.01,2013-01-06 07:26:00,
2013-01-06 02:31:00,38.7,33.1,30.16,SSW,208,3.0,0.0,80,0.01,,SKC,0.01,VWS V14.01,2013-01-06 07:31:00,
2013-01-06 02:37:00,38.8,33.2,30.16,SSE,147,1.0,0.0,80,0.01,,SKC,0.01,VWS V14.01,2013-01-06 07:37:00,
2013-01-06 02:43:00,38.9,33.3,30.15,SE,144,2.0,0.0,80,0.01,,SKC,0.01,VWS V14.01,2013-01-06 07:43:00,
2013-01-06 02:49:00,38.9,33.3,30.16,South,190,3.0,0.0,80,0.01,,SKC,0.01,VWS V14.01,2013-01-06 07:49:00,
2013-01-06 02:55:00,38.9,33.3,30.15,SSE,162,1.0,0.0,80,0.01,,SKC,0.01,VWS V14.01,2013-01-06 07:55:00,
2013-01-06 03:01:00,38.7,33.4,30.15,SE,128,1.0,0.0,81,0.01,,SKC,0.01,VWS V14.01,2013-01-06 08:01:00,
2013-01-06 03:06:00,38.7,33.4,30.15,SSW,194,1.0,0.0,81,0.01,,SKC,0.01,VWS V14.01,2013-01-06 08:06:00,
2013-01-06 03:11:00,38.8,33.2,30.15,South,190,2.0,0.0,80,0.01,,SKC,0.01,VWS V14.01,2013-01-06 08:11:00,
2013-01-06 03:16:00,38.9,33.3,30.15,SSW,195,1.0,0.0,80,0.00,,SKC,0.01,VWS V14.01,2013-01-06 08:16:00,
2013-01-06 03:21:00,38.9,33.3,30.15,SE,134,2.0,0.0,80,0.00,,SKC,0.01,VWS V14.01,2013-01-06 08:21:00,
2013-01-06 03:27:00,38.9,33.3,30.15,SSE,159,3.0,0.0,80,0.00,,SKC,0.01,VWS V14.01,2013-01-06 08:27:00,
2013-01-06 03:33:00,39.0,33.7,30.14,SW,226,1.0,0.0,81,0.00,,SKC,0.01,VWS V14.01,2013-01-06 08:33:00,
2013-01-06 03:39:00,38.9,33.6,30.14,SW,235,1.0,0.0,81,0.00,,SKC,0.01,VWS V14.01,2013-01-06 08:39:00,
2013-01-06 03:45:00,38.9,33.6,30.14,South,188,2.0,0.0,81,0.00,,SKC,0.01,VWS V14.01,2013-01-06 08:45:00,
2013-01-06 03:51:00,39.0,33.7,30.12,SSE,159,1.0,0.0,81,0.00,,SKC,0.01,VWS V14.01,2013-01-06 08:51:00,
2013-01-06 03:56:00,38.9,33.6,30.12,South,190,4.0,0.0,81,0.00,,SKC,0.01,VWS V14.01,2013-01-06 08:56:00,
2013-01-06 04:01:00,38.9,33.9,30.13,WSW,239,4.0,0.0,82,0.00,,SKC,0.01,VWS V14.01,2013-01-06 09:01:00,
2013-01-06 04:06:00,38.9,33.9,30.13,SSE,150,2.0,0.0,82,0.00,,SKC,0.01,VWS V14.01,2013-01-06 09:06:00,
2013-01-06 04:11:00,38.9,33.6,30.13,South,179,3.0,0.0,81,0.00,,SKC,0.01,VWS V14.01,2013-01-06 09:11:00,
2013-01-06 04:17:00,38.9,33.6,30.13,South,188,2.0,0.0,81,0.00,,SKC,0.01,VWS V14.01,2013-01-06 09:17:00,
2013-01-06 04:23:00,39.0,33.7,30.13,South,183,2.0,0.0,81,0.00,,SKC,0.01,VWS V14.01,2013-01-06 09:23:00,
2013-01-06 04:29:00,39.0,33.7,30.13,SE,134,3.0,0.0,81,0.00,,SKC,0.01,VWS V14.01,2013-01-06 09:29:00,
2013-01-06 04:35:00,39.0,33.7,30.12,ESE,122,1.0,0.0,81,0.00,,SKC,0.01,VWS V14.01,2013-01-06 09:35:00,
2013-01-06 04:41:00,39.1,33.8,30.12,SSE,157,2.0,0.0,81,0.00,,SKC,0.01,VWS V14.01,2013-01-06 09:41:00,
2013-01-06 04:46:00,39.1,33.8,30.12,SSW,193,2.0,0.0,81,0.00,,SKC,0.01,VWS V14.01,2013-01-06 09:46:00,
2013-01-06 04:51:00,39.2,33.9,30.12,SE,132,1.0,0.0,81,0.00,,SKC,0.01,VWS V14.01,2013-01-06 09:51:00,
2013-01-06 04:57:00,39.2,33.6,30.10,South,172,1.0,0.0,80,0.00,,SKC,0.01,VWS V14.01,2013-01-06 09:57:00,
2013-01-06 05:03:00,39.1,33.8,30.10,South,180,0.0,0.0,81,0.00,,SKC,0.01,VWS V14.01,2013-01-06 10:03:00,
2013-01-06 05:09:00,39.0,33.7,30.11,SW,232,1.0,0.0,81,0.00,,SKC,0.01,VWS V14.01,2013-01-06 10:09:00,
2013-01-06 05:15:00,38.9,33.6,30.11,SW,232,0.0,0.0,81,0.00,,SKC,0.01,VWS V14.01,2013-01-06 10:15:00,
2013-01-06 05:21:00,38.6,33.3,30.11,SW,233,0.0,0.0,81,0.00,,SKC,0.01,VWS V14.01,2013-01-06 10:21:00,
2013-01-06 05:26:00,38.4,33.4,30.11,SSW,198,0.0,0.0,82,0.00,,SKC,0.01,VWS V14.01,2013-01-06 10:26:00,
2013-01-06 05:31:00,38.1,33.1,30.11,SSW,198,0.0,0.0,82,0.00,,SKC,0.01,VWS V14.01,2013-01-06 10:31:00,
2013-01-06 05:36:00,38.0,33.3,30.11,SSW,198,0.0,0.0,83,0.00,,SKC,0.01,VWS V14.01,2013-01-06 10:36:00,
2013-01-06 05:41:00,37.9,33.2,30.11,SSW,198,0.0,0.0,83,0.00,,SKC,0.01,VWS V14.01,2013-01-06 10:41:00,
2013-01-06 05:46:00,37.8,33.1,30.11,SSW,198,0.0,0.0,83,0.00,,SKC,0.01,VWS V14.01,2013-01-06 10:46:00,
2013-01-06 05:51:00,37.7,33.3,30.12,SSW,200,0.0,0.0,84,0.00,,SKC,0.01,VWS V14.01,2013-01-06 10:51:00,
2013-01-06 05:56:00,37.7,33.3,30.12,SSW,200,0.0,0.0,84,0.00,,SKC,0.01,VWS V14.01,2013-01-06 10:56:00,
2013-01-06 06:01:00,37.7,33.3,30.12,SSW,200,0.0,0.0,84,0.00,,SKC,0.01,VWS V14.01,2013-01-06 11:01:00,
2013-01-06 06:06:00,37.6,33.5,30.12,SSW,200,0.0,0.0,85,0.00,,SKC,0.01,VWS V14.01,2013-01-06 11:06:00,
2013-01-06 06:11:00,37.5,33.4,30.12,SSW,200,0.0,0.0,85,0.00,,SKC,0.01,VWS V14.01,2013-01-06 11:11:00,
2013-01-06 06:16:00,37.5,33.4,30.13,SSW,200,0.0,0.0,85,0.00,,SKC,0.01,VWS V14.01,2013-01-06 11:16:00,
2013-01-06 06:21:00,37.5,33.4,30.13,SSW,200,0.0,0.0,85,0.00,,SKC,0.01,VWS V14.01,2013-01-06 11:21:00,
2013-01-06 06:26:00,37.4,33.3,30.13,SSW,200,0.0,0.0,85,0.00,,SKC,0.01,VWS V14.01,2013-01-06 11:26:00,
2013-01-06 06:31:00,37.5,33.4,30.13,SSW,200,0.0,0.0,85,0.00,,SKC,0.01,VWS V14.01,2013-01-06 11:31:00,
2013-01-06 06:36:00,37.5,33.4,30.13,SSW,200,0.0,0.0,85,0.00,,SKC,0.01,VWS V14.01,2013-01-06 11:36:00,
2013-01-06 06:41:00,37.5,33.4,30.12,SSW,200,0.0,0.0,85,0.00,,SKC,0.01,VWS V14.01,2013-01-06 11:41:00,
2013-01-06 06:46:00,37.5,33.4,30.12,SSW,200,0.0,0.0,85,0.00,,SKC,0.01,VWS V14.01,2013-01-06 11:46:00,
2013-01-06 06:51:00,37.5,33.4,30.12,SSW,200,0.0,0.0,85,0.00,,SKC,0.01,VWS V14.01,2013-01-06 11:51:00,
2013-01-06 06:56:00,37.5,33.4,30.12,SSW,200,0.0,0.0,85,0.00,,SKC,0.01,VWS V14.01,2013-01-06 11:56:00,
2013-01-06 07:01:00,37.6,33.2,30.12,SSW,200,0.0,0.0,84,0.00,,SKC,0.01,VWS V14.01,2013-01-06 12:01:00,
2013-01-06 07:06:00,37.6,33.2,30.12,SSW,200,0.0,0.0,84,0.00,,SKC,0.01,VWS V14.01,2013-01-06 12:06:00,
2013-01-06 07:11:00,37.5,33.1,30.12,SSW,200,0.0,0.0,84,0.00,,SKC,0.01,VWS V14.01,2013-01-06 12:11:00,
2013-01-06 07:16:00,37.6,33.2,30.13,SSW,200,0.0,0.0,84,0.00,,SKC,0.01,VWS V14.01,2013-01-06 12:16:00,
2013-01-06 07:21:00,37.5,33.4,30.13,SSW,200,0.0,0.0,85,0.00,,SKC,0.01,VWS V14.01,2013-01-06 12:21:00,
2013-01-06 07:26:00,37.4,33.3,30.13,SSW,200,0.0,0.0,85,0.00,,SKC,0.01,VWS V14.01,2013-01-06 12:26:00,
2013-01-06 07:31:00,37.3,33.2,30.13,SSW,200,0.0,0.0,85,0.00,,SKC,0.01,VWS V14.01,2013-01-06 12:31:00,
2013-01-06 07:36:00,37.5,33.7,30.12,SSW,200,0.0,0.0,86,0.00,,SKC,0.01,VWS V14.01,2013-01-06 12:36:00,
2013-01-06 07:42:00,37.5,34.0,30.13,SSW,200,0.0,0.0,87,0.00,,SKC,0.01,VWS V14.01,2013-01-06 12:42:00,
2013-01-06 07:48:00,37.6,34.1,30.13,SSW,200,0.0,0.0,87,0.00,,SKC,0.01,VWS V14.01,2013-01-06 12:48:00,
2013-01-06 07:54:00,37.9,34.4,30.13,SSW,198,0.0,0.0,87,0.00,,SKC,0.01,VWS V14.01,2013-01-06 12:54:00,
2013-01-06 08:00:00,38.1,34.6,30.13,SSW,198,0.0,0.0,87,0.00,,SKC,0.01,VWS V14.01,2013-01-06 13:00:00,
2013-01-06 08:06:00,38.3,34.8,30.13,SSW,198,0.0,0.0,87,0.00,,SKC,0.01,VWS V14.01,2013-01-06 13:06:00,
2013-01-06 08:11:00,38.5,35.0,30.13,SSW,198,0.0,0.0,87,0.00,,SKC,0.01,VWS V14.01,2013-01-06 13:11:00,
2013-01-06 08:16:00,38.6,34.8,30.13,SSW,198,0.0,0.0,86,0.00,,SKC,0.01,VWS V14.01,2013-01-06 13:16:00,
2013-01-06 08:21:00,38.8,35.0,30.13,SSW,198,0.0,0.0,86,0.00,,SKC,0.01,VWS V14.01,2013-01-06 13:21:00,
2013-01-06 08:26:00,39.0,35.2,30.13,SSW,198,0.0,0.0,86,0.00,,SKC,0.01,VWS V14.01,2013-01-06 13:26:00,
2013-01-06 08:31:00,39.2,35.1,30.13,SSW,198,0.0,0.0,85,0.00,,SKC,0.01,VWS V14.01,2013-01-06 13:31:00,
2013-01-06 08:36:00,39.5,35.4,30.13,SSW,198,0.0,0.0,85,0.00,,SKC,0.01,VWS V14.01,2013-01-06 13:36:00,
2013-01-06 08:41:00,39.6,35.2,30.13,SSW,198,0.0,0.0,84,0.00,,SKC,0.01,VWS V14.01,2013-01-06 13:41:00,
2013-01-06 08:46:00,39.8,35.1,30.13,SSW,198,0.0,0.0,83,0.00,,SKC,0.01,VWS V14.01,2013-01-06 13:46:00,
2013-01-06 08:51:00,39.9,34.9,30.13,SSW,198,0.0,0.0,82,0.00,,SKC,0.01,VWS V14.01,2013-01-06 13:51:00,
2013-01-06 08:56:00,40.0,34.7,30.14,SSW,201,0.0,0.0,81,0.00,,SKC,0.01,VWS V14.01,2013-01-06 13:56:00,
2013-01-06 09:01:00,40.2,34.8,30.14,SSW,208,0.0,0.0,81,0.00,,SKC,0.01,VWS V14.01,2013-01-06 14:01:00,
2013-01-06 09:06:00,40.3,34.6,30.14,SSW,208,0.0,0.0,80,0.00,,SKC,0.01,VWS V14.01,2013-01-06 14:06:00,
2013-01-06 09:11:00,40.5,34.8,30.14,SSW,203,1.0,0.0,80,0.00,,SKC,0.01,VWS V14.01,2013-01-06 14:11:00,
2013-01-06 09:16:00,40.7,34.7,30.14,South,186,0.0,0.0,79,0.00,,SKC,0.01,VWS V14.01,2013-01-06 14:16:00,
2013-01-06 09:21:00,40.8,34.8,30.14,ESE,113,1.0,0.0,79,0.00,,SKC,0.01,VWS V14.01,2013-01-06 14:21:00,
2013-01-06 09:26:00,41.1,35.4,30.14,SSE,153,0.0,0.0,80,0.00,,SKC,0.01,VWS V14.01,2013-01-06 14:26:00,
2013-01-06 09:31:00,41.2,35.5,30.14,SE,139,0.0,0.0,80,0.00,,SKC,0.01,VWS V14.01,2013-01-06 14:31:00,
2013-01-06 09:36:00,41.3,35.6,30.14,SE,146,0.0,0.0,80,0.00,,SKC,0.01,VWS V14.01,2013-01-06 14:36:00,
2013-01-06 09:41:00,41.5,35.8,30.13,East,80,1.0,0.0,80,0.00,,SKC,0.01,VWS V14.01,2013-01-06 14:41:00,
2013-01-06 09:46:00,41.5,35.8,30.14,SSW,207,1.0,0.0,80,0.00,,SKC,0.01,VWS V14.01,2013-01-06 14:46:00,
2013-01-06 09:51:00,41.5,35.5,30.15,SW,224,0.0,0.0,79,0.00,,SKC,0.01,VWS V14.01,2013-01-06 14:51:00,
2013-01-06 09:56:00,41.7,35.7,30.15,SW,222,0.0,0.0,79,0.00,,SKC,0.01,VWS V14.01,2013-01-06 14:56:00,
2013-01-06 10:01:00,42.0,36.3,30.15,SW,236,0.0,0.0,80,0.00,,SKC,0.01,VWS V14.01,2013-01-06 15:01:00,
2013-01-06 10:06:00,42.5,36.5,30.15,SSW,198,1.0,0.0,79,0.00,,SKC,0.01,VWS V14.01,2013-01-06 15:06:00,
2013-01-06 10:11:00,42.8,36.4,30.15,SW,232,0.0,0.0,78,0.00,,SKC,0.01,VWS V14.01,2013-01-06 15:11:00,
2013-01-06 10:16:00,43.2,36.5,30.15,SE,128,1.0,0.0,77,0.00,,SKC,0.01,VWS V14.01,2013-01-06 15:16:00,
2013-01-06 10:21:00,43.4,36.3,30.14,ESE,113,2.0,0.0,76,0.00,,SKC,0.01,VWS V14.01,2013-01-06 15:21:00,
2013-01-06 10:26:00,43.5,36.1,30.14,SE,137,0.0,0.0,75,0.00,,SKC,0.01,VWS V14.01,2013-01-06 15:26:00,
2013-01-06 10:31:00,44.0,37.3,30.14,SW,235,0.0,0.0,77,0.00,,SKC,0.01,VWS V14.01,2013-01-06 15:31:00,
2013-01-06 10:36:00,44.5,37.4,30.14,South,188,1.0,0.0,76,0.00,,SKC,0.01,VWS V14.01,2013-01-06 15:36:00,
2013-01-06 10:41:00,44.9,37.1,30.14,ESE,122,0.0,0.0,74,0.00,,SKC,0.01,VWS V14.01,2013-01-06 15:41:00,
2013-01-06 10:46:00,45.3,37.2,30.14,SE,131,1.0,0.0,73,0.00,,SKC,0.01,VWS V14.01,2013-01-06 15:46:00,
2013-01-06 10:51:00,46.1,37.9,30.13,SSE,147,0.0,0.0,73,0.00,,SKC,0.01,VWS V14.01,2013-01-06 15:51:00,
2013-01-06 10:56:00,47.4,38.5,30.13,East,98,3.0,0.0,71,0.00,,SKC,0.01,VWS V14.01,2013-01-06 15:56:00,
2013-01-06 11:01:00,47.4,37.4,30.13,North,354,1.0,0.0,68,0.00,,SKC,0.01,VWS V14.01,2013-01-06 16:01:00,
2013-01-06 11:06:00,47.2,37.2,30.13,NNW,340,1.0,0.0,68,0.00,,SKC,0.01,VWS V14.01,2013-01-06 16:06:00,
2013-01-06 11:11:00,47.5,37.1,30.13,North,360,1.0,0.0,67,0.00,,SKC,0.01,VWS V14.01,2013-01-06 16:11:00,
2013-01-06 11:16:00,47.7,36.9,30.13,WNW,294,0.0,0.0,66,0.00,,SKC,0.01,VWS V14.01,2013-01-06 16:16:00,
2013-01-06 11:21:00,47.9,37.5,30.13,SSW,211,0.0,0.0,67,0.00,,SKC,0.01,VWS V14.01,2013-01-06 16:21:00,
2013-01-06 11:26:00,48.1,37.3,30.12,SSW,200,0.0,0.0,66,0.00,,SKC,0.01,VWS V14.01,2013-01-06 16:26:00,
2013-01-06 11:31:00,48.1,37.3,30.11,East,101,0.0,0.0,66,0.00,,SKC,0.01,VWS V14.01,2013-01-06 16:31:00,
2013-01-06 11:36:00,47.9,37.1,30.10,NE,51,0.0,0.0,66,0.00,,SKC,0.01,VWS V14.01,2013-01-06 16:36:00,
2013-01-06 11:41:00,47.9,37.5,30.10,NE,40,0.0,0.0,67,0.00,,SKC,0.01,VWS V14.01,2013-01-06 16:41:00,
2013-01-06 11:46:00,47.9,37.1,30.10,East,98,1.0,0.0,66,0.00,,SKC,0.01,VWS V14.01,2013-01-06 16:46:00,
2013-01-06 11:51:00,47.7,36.9,30.10,East,98,0.0,0.0,66,0.00,,SKC,0.01,VWS V14.01,2013-01-06 16:51:00,
2013-01-06 12:52:00,49.0,37.0,30.06,ESE,112,1.0,4.0,63,0.00,,SKC,0.01,VWS V14.01,2013-01-06 17:52:00,
2013-01-06 12:58:00,49.6,36.7,30.05,South,174,2.0,4.0,61,0.00,,SKC,0.01,VWS V14.01,2013-01-06 17:58:00,
2013-01-06 13:04:00,50.1,36.8,30.05,SE,134,2.0,4.0,60,0.00,,SKC,0.01,VWS V14.01,2013-01-06 18:04:00,
2013-01-06 13:10:00,50.3,36.5,30.04,NW,317,0.0,4.0,59,0.00,,SKC,0.01,VWS V14.01,2013-01-06 18:10:00,
2013-01-06 13:16:00,50.5,37.2,30.04,SSE,148,4.0,4.0,60,0.00,,SKC,0.01,VWS V14.01,2013-01-06 18:16:00,
2013-01-06 13:21:00,50.5,37.6,30.04,ESE,111,4.0,4.0,61,0.00,,SKC,0.01,VWS V14.01,2013-01-06 18:21:00,
2013-01-06 13:26:00,50.4,36.6,30.03,ESE,115,4.0,4.0,59,0.00,,SKC,0.01,VWS V14.01,2013-01-06 18:26:00,
2013-01-06 13:31:00,50.3,36.5,30.03,SE,138,1.0,4.0,59,0.00,,SKC,0.01,VWS V14.01,2013-01-06 18:31:00,
2013-01-06 13:36:00,50.7,37.3,30.03,East,95,5.0,5.0,60,0.00,,SKC,0.01,VWS V14.01,2013-01-06 18:36:00,
2013-01-06 13:42:00,50.8,37.0,30.03,ESE,120,4.0,4.0,59,0.00,,SKC,0.01,VWS V14.01,2013-01-06 18:42:00,
2013-01-06 13:48:00,51.0,37.2,30.03,SE,142,1.0,4.0,59,0.00,,SKC,0.01,VWS V14.01,2013-01-06 18:48:00,
2013-01-06 13:54:00,51.7,37.8,30.02,South,190,4.0,4.0,59,0.00,,SKC,0.01,VWS V14.01,2013-01-06 18:54:00,
2013-01-06 14:00:00,51.4,36.7,30.02,ESE,108,2.0,4.0,57,0.00,,SKC,0.01,VWS V14.01,2013-01-06 19:00:00,
2013-01-06 14:06:00,51.6,38.2,30.02,ESE,115,3.0,4.0,60,0.00,,SKC,0.01,VWS V14.01,2013-01-06 19:06:00,
2013-01-06 14:11:00,51.7,37.4,30.02,SW,215,1.0,4.0,58,0.00,,SKC,0.01,VWS V14.01,2013-01-06 19:11:00,
2013-01-06 14:16:00,51.7,37.4,30.01,SE,142,3.0,4.0,58,0.00,,SKC,0.01,VWS V14.01,2013-01-06 19:16:00,
2013-01-06 14:21:00,51.8,37.5,30.01,ESE,118,4.0,4.0,58,0.00,,SKC,0.01,VWS V14.01,2013-01-06 19:21:00,
2013-01-06 14:26:00,51.9,38.0,30.01,SW,225,3.0,4.0,59,0.00,,SKC,0.01,VWS V14.01,2013-01-06 19:26:00,
2013-01-06 14:31:00,52.0,37.7,30.01,ENE,76,3.0,4.0,58,0.00,,SKC,0.01,VWS V14.01,2013-01-06 19:31:00,
2013-01-06 14:36:00,52.1,37.8,30.01,SW,235,2.0,4.0,58,0.00,,SKC,0.01,VWS V14.01,2013-01-06 19:36:00,
2013-01-06 14:46:00,52.1,37.8,30.00,WSW,240,1.0,4.0,58,0.00,,SKC,0.01,VWS V14.01,2013-01-06 19:46:00,
2013-01-06 14:51:00,52.5,37.7,30.00,WSW,253,2.0,4.0,57,0.00,,SKC,0.01,VWS V14.01,2013-01-06 19:51:00,
2013-01-06 14:57:00,52.7,37.9,30.00,SSW,205,3.0,4.0,57,0.00,,SKC,0.01,VWS V14.01,2013-01-06 19:57:00,
2013-01-06 15:04:00,52.7,37.9,30.00,SE,129,0.0,4.0,57,0.00,,SKC,0.01,VWS V14.01,2013-01-06 20:04:00,
2013-01-06 15:10:00,53.1,37.8,30.01,SSE,160,3.0,4.0,56,0.00,,SKC,0.01,VWS V14.01,2013-01-06 20:10:00,
2013-01-06 15:11:00,53.1,37.8,30.01,SSW,203,4.0,4.0,56,0.00,,SKC,0.01,VWS V14.01,2013-01-06 20:11:00,
2013-01-06 15:17:00,53.0,37.7,30.01,SW,233,0.0,4.0,56,0.00,,SKC,0.01,VWS V14.01,2013-01-06 20:17:00,
2013-01-06 15:23:00,53.2,37.9,30.01,ESE,122,1.0,4.0,56,0.00,,SKC,0.01,VWS V14.01,2013-01-06 20:23:00,
2013-01-06 15:29:00,53.2,37.9,30.01,SE,145,0.0,4.0,56,0.00,,SKC,0.01,VWS V14.01,2013-01-06 20:29:00,
2013-01-06 15:35:00,53.4,37.7,30.01,West,266,2.0,4.0,55,0.00,,SKC,0.01,VWS V14.01,2013-01-06 20:35:00,
2013-01-06 15:41:00,53.3,38.0,30.01,WSW,249,1.0,4.0,56,0.00,,SKC,0.01,VWS V14.01,2013-01-06 20:41:00,
2013-01-06 15:47:00,53.3,38.0,30.01,South,191,2.0,4.0,56,0.00,,SKC,0.01,VWS V14.01,2013-01-06 20:47:00,
2013-01-06 15:54:00,52.9,37.7,30.01,SW,219,0.0,4.0,56,0.00,,SKC,0.01,VWS V14.01,2013-01-06 20:54:00,
2013-01-06 16:00:00,53.3,37.6,30.01,SW,220,0.0,4.0,55,0.00,,SKC,0.01,VWS V14.01,2013-01-06 21:00:00,
2013-01-06 16:04:00,53.2,37.5,30.01,SW,228,1.0,4.0,55,0.00,,SKC,0.01,VWS V14.01,2013-01-06 21:04:00,
2013-01-06 16:10:00,53.2,37.9,30.01,ESE,122,1.0,4.0,56,0.00,,SKC,0.01,VWS V14.01,2013-01-06 21:10:00,
2013-01-06 16:16:00,52.8,37.5,30.01,ESE,110,6.0,6.0,56,0.00,,SKC,0.01,VWS V14.01,2013-01-06 21:16:00,
2013-01-06 16:21:00,52.6,37.8,30.01,SSW,194,4.0,4.0,57,0.00,,SKC,0.01,VWS V14.01,2013-01-06 21:21:00,
2013-01-06 16:26:00,52.3,37.5,30.01,SE,132,0.0,4.0,57,0.00,,SKC,0.01,VWS V14.01,2013-01-06 21:26:00,
2013-01-06 16:31:00,52.0,37.7,30.01,South,188,1.0,4.0,58,0.00,,SKC,0.01,VWS V14.01,2013-01-06 21:31:00,
2013-01-06 16:36:00,51.6,37.3,30.01,ESE,104,1.0,4.0,58,0.00,,SKC,0.01,VWS V14.01,2013-01-06 21:36:00,
2013-01-06 16:41:00,51.1,37.3,30.01,SSE,159,0.0,4.0,59,0.00,,SKC,0.01,VWS V14.01,2013-01-06 21:41:00,
2013-01-06 16:46:00,50.8,37.0,30.01,SSW,194,0.0,4.0,59,0.00,,SKC,0.01,VWS V14.01,2013-01-06 21:46:00,
2013-01-06 16:52:00,50.4,37.0,30.01,SSE,165,1.0,4.0,60,0.00,,SKC,0.01,VWS V14.01,2013-01-06 21:52:00,
2013-01-06 16:58:00,49.9,37.0,30.01,SSW,194,1.0,4.0,61,0.00,,SKC,0.01,VWS V14.01,2013-01-06 21:58:00,
2013-01-06 17:04:00,49.4,36.9,30.02,South,191,1.0,4.0,62,0.00,,SKC,0.01,VWS V14.01,2013-01-06 22:04:00,
2013-01-06 17:10:00,48.7,36.7,30.01,South,190,0.0,4.0,63,0.00,,SKC,0.01,VWS V14.01,2013-01-06 22:10:00,
2013-01-06 17:16:00,48.0,36.4,30.01,South,190,0.0,4.0,64,0.00,,SKC,0.01,VWS V14.01,2013-01-06 22:16:00,
2013-01-06 17:21:00,47.5,36.3,30.02,South,188,0.0,4.0,65,0.00,,SKC,0.01,VWS V14.01,2013-01-06 22:21:00,
2013-01-06 17:26:00,47.2,36.4,30.02,South,190,0.0,4.0,66,0.00,,SKC,0.01,VWS V14.01,2013-01-06 22:26:00,
2013-01-06 17:31:00,46.8,36.0,30.02,South,190,0.0,4.0,66,0.00,,SKC,0.01,VWS V14.01,2013-01-06 22:31:00,
2013-01-06 17:36:00,46.4,36.0,30.02,South,190,0.0,4.0,67,0.00,,SKC,0.01,VWS V14.01,2013-01-06 22:36:00,
2013-01-06 17:43:00,45.9,36.0,30.02,South,190,0.0,4.0,68,0.00,,SKC,0.01,VWS V14.01,2013-01-06 22:43:00,
2013-01-06 17:49:00,45.6,36.0,30.02,South,190,0.0,4.0,69,0.00,,SKC,0.01,VWS V14.01,2013-01-06 22:49:00,
2013-01-06 17:55:00,45.2,36.0,30.03,South,191,0.0,4.0,70,0.00,,SKC,0.01,VWS V14.01,2013-01-06 22:55:00,
2013-01-06 18:01:00,44.5,35.3,30.03,South,191,0.0,4.0,70,0.00,,SKC,0.01,VWS V14.01,2013-01-06 23:01:00,
2013-01-06 18:06:00,44.3,35.9,30.03,South,191,0.0,4.0,72,0.00,,SKC,0.01,VWS V14.01,2013-01-06 23:06:00,
2013-01-06 18:11:00,44.4,36.0,30.03,South,190,0.0,4.0,72,0.00,,SKC,0.01,VWS V14.01,2013-01-06 23:11:00,
2013-01-06 18:16:00,44.4,35.6,30.04,South,190,0.0,4.0,71,0.00,,SKC,0.01,VWS V14.01,2013-01-06 23:16:00,
2013-01-06 18:21:00,44.4,36.0,30.03,SSW,195,0.0,4.0,72,0.00,,SKC,0.01,VWS V14.01,2013-01-06 23:21:00,
2013-01-06 18:27:00,44.4,36.0,30.04,SSW,195,0.0,4.0,72,0.00,,SKC,0.01,VWS V14.01,2013-01-06 23:27:00,
2013-01-06 18:33:00,44.4,36.0,30.04,SSW,195,0.0,4.0,72,0.00,,SKC,0.01,VWS V14.01,2013-01-06 23:33:00,
2013-01-06 18:39:00,44.7,36.2,30.05,SSW,212,0.0,4.0,72,0.00,,SKC,0.01,VWS V14.01,2013-01-06 23:39:00,
2013-01-06 18:45:00,45.0,36.5,30.06,WNW,299,1.0,4.0,72,0.00,,SKC,0.01,VWS V14.01,2013-01-06 23:45:00,
2013-01-06 18:51:00,44.8,36.0,30.06,NW,317,1.0,4.0,71,0.00,,SKC,0.01,VWS V14.01,2013-01-06 23:51:00,
2013-01-06 18:56:00,45.1,35.9,30.07,NW,318,1.0,4.0,70,0.00,,SKC,0.01,VWS V14.01,2013-01-06 23:56:00,
2013-01-06 19:01:00,45.2,36.0,30.07,NW,309,2.0,4.0,70,0.00,,SKC,0.01,VWS V14.01,2013-01-07 00:01:00,
2013-01-06 19:06:00,45.3,36.1,30.08,NNW,347,1.0,4.0,70,0.00,,SKC,0.01,VWS V14.01,2013-01-07 00:06:00,
2013-01-06 19:11:00,45.5,36.3,30.08,NNW,334,1.0,4.0,70,0.00,,SKC,0.01,VWS V14.01,2013-01-07 00:11:00,
2013-01-06 19:16:00,45.5,36.3,30.09,NW,321,2.0,4.0,70,0.00,,SKC,0.01,VWS V14.01,2013-01-07 00:16:00,
2013-01-06 19:21:00,45.5,36.3,30.09,WNW,287,1.0,4.0,70,0.00,,SKC,0.01,VWS V14.01,2013-01-07 00:21:00,
2013-01-06 19:26:00,45.6,36.0,30.09,NW,323,5.0,5.0,69,0.00,,SKC,0.01,VWS V14.01,2013-01-07 00:26:00,
2013-01-06 19:31:00,45.6,35.7,30.09,NW,312,4.0,4.0,68,0.00,,SKC,0.01,VWS V14.01,2013-01-07 00:31:00,
2013-01-06 19:36:00,45.5,35.6,30.09,NNW,340,3.0,4.0,68,0.00,,SKC,0.01,VWS V14.01,2013-01-07 00:36:00,
2013-01-06 19:41:00,45.3,35.0,30.09,NNW,328,5.0,5.0,67,0.00,,SKC,0.01,VWS V14.01,2013-01-07 00:41:00,
2013-01-06 19:46:00,45.1,34.8,30.10,NW,316,4.0,4.0,67,0.00,,SKC,0.01,VWS V14.01,2013-01-07 00:46:00,
2013-01-06 19:51:00,44.9,34.2,30.10,NW,317,3.0,4.0,66,0.00,,SKC,0.01,VWS V14.01,2013-01-07 00:51:00,
2013-01-06 19:56:00,44.7,33.7,30.10,NW,305,4.0,4.0,65,0.00,,SKC,0.01,VWS V14.01,2013-01-07 00:56:00,
2013-01-06 20:01:00,44.6,33.6,30.11,WNW,293,4.0,4.0,65,0.00,,SKC,0.01,VWS V14.01,2013-01-07 01:01:00,
2013-01-06 20:06:00,44.3,33.3,30.10,NW,323,3.0,4.0,65,0.00,,SKC,0.01,VWS V14.01,2013-01-07 01:06:00,
2013-01-06 20:11:00,44.1,33.1,30.11,NW,307,3.0,4.0,65,0.00,,SKC,0.01,VWS V14.01,2013-01-07 01:11:00,
2013-01-06 20:16:00,43.8,32.4,30.11,NW,319,1.0,4.0,64,0.00,,SKC,0.01,VWS V14.01,2013-01-07 01:16:00,
2013-01-06 20:21:00,43.7,32.3,30.10,WNW,291,1.0,4.0,64,0.00,,SKC,0.01,VWS V14.01,2013-01-07 01:21:00,
2013-01-06 20:26:00,43.3,32.0,30.11,NW,311,2.0,4.0,64,0.00,,SKC,0.01,VWS V14.01,2013-01-07 01:26:00,
2013-01-06 20:31:00,43.0,32.1,30.10,WNW,303,0.0,4.0,65,0.00,,SKC,0.01,VWS V14.01,2013-01-07 01:31:00,
2013-01-06 20:36:00,42.6,31.7,30.10,NW,316,1.0,4.0,65,0.00,,SKC,0.01,VWS V14.01,2013-01-07 01:36:00,
2013-01-06 20:41:00,42.4,31.9,30.10,NW,315,0.0,4.0,66,0.00,,SKC,0.01,VWS V14.01,2013-01-07 01:41:00,
2013-01-06 20:46:00,42.0,31.5,30.10,WNW,302,1.0,4.0,66,0.00,,SKC,0.01,VWS V14.01,2013-01-07 01:46:00,
2013-01-06 20:51:00,41.8,31.3,30.10,WNW,302,0.0,4.0,66,0.00,,SKC,0.01,VWS V14.01,2013-01-07 01:51:00,
2013-01-06 20:56:00,41.5,31.4,30.11,WNW,302,0.0,4.0,67,0.00,,SKC,0.01,VWS V14.01,2013-01-07 01:56:00,
2013-01-06 21:01:00,41.4,31.3,30.10,NW,305,0.0,4.0,67,0.00,,SKC,0.01,VWS V14.01,2013-01-07 02:01:00,
2013-01-06 21:06:00,41.5,31.4,30.11,WNW,303,2.0,4.0,67,0.00,,SKC,0.01,VWS V14.01,2013-01-07 02:06:00,
2013-01-06 21:11:00,41.8,32.0,30.11,NW,305,1.0,4.0,68,0.00,,SKC,0.01,VWS V14.01,2013-01-07 02:11:00,
2013-01-06 21:16:00,41.9,31.8,30.11,WNW,295,0.0,4.0,67,0.00,,SKC,0.01,VWS V14.01,2013-01-07 02:16:00,
2013-01-06 21:21:00,41.9,31.8,30.11,WNW,295,1.0,4.0,67,0.00,,SKC,0.01,VWS V14.01,2013-01-07 02:21:00,
2013-01-06 21:26:00,41.9,31.8,30.11,WNW,283,0.0,4.0,67,0.00,,SKC,0.01,VWS V14.01,2013-01-07 02:26:00,
2013-01-06 21:31:00,41.8,31.7,30.11,WNW,283,1.0,4.0,67,0.00,,SKC,0.01,VWS V14.01,2013-01-07 02:31:00,
2013-01-06 21:36:00,41.7,31.6,30.11,WNW,283,0.0,4.0,67,0.00,,SKC,0.01,VWS V14.01,2013-01-07 02:36:00,
2013-01-06 21:42:00,41.6,31.5,30.12,WNW,283,0.0,4.0,67,0.00,,SKC,0.01,VWS V14.01,2013-01-07 02:42:00,
2013-01-06 21:48:00,41.4,31.6,30.12,WNW,283,0.0,4.0,68,0.00,,SKC,0.01,VWS V14.01,2013-01-07 02:48:00,
2013-01-06 21:54:00,41.3,31.5,30.12,WNW,283,0.0,4.0,68,0.00,,SKC,0.01,VWS V14.01,2013-01-07 02:54:00,
2013-01-06 22:00:00,41.1,31.4,30.12,WNW,283,0.0,4.0,68,0.00,,SKC,0.01,VWS V14.01,2013-01-07 03:00:00,
2013-01-06 22:06:00,40.8,31.4,30.12,WNW,283,0.0,4.0,69,0.00,,SKC,0.01,VWS V14.01,2013-01-07 03:06:00,
2013-01-06 22:11:00,40.7,31.3,30.12,WNW,282,0.0,4.0,69,0.00,,SKC,0.01,VWS V14.01,2013-01-07 03:11:00,
2013-01-06 22:16:00,40.6,31.2,30.13,WNW,283,0.0,4.0,69,0.00,,SKC,0.01,VWS V14.01,2013-01-07 03:16:00,
2013-01-06 22:22:00,40.4,31.0,30.12,WNW,282,0.0,4.0,69,0.00,,SKC,0.01,VWS V14.01,2013-01-07 03:22:00,
2013-01-06 22:28:00,40.1,30.8,30.13,WNW,283,0.0,4.0,69,0.00,,SKC,0.01,VWS V14.01,2013-01-07 03:28:00,
2013-01-06 22:34:00,39.8,30.8,30.13,WNW,283,1.0,4.0,70,0.00,,SKC,0.01,VWS V14.01,2013-01-07 03:34:00,
2013-01-06 22:40:00,39.5,30.5,30.13,WNW,284,0.0,4.0,70,0.00,,SKC,0.01,VWS V14.01,2013-01-07 03:40:00,
2013-01-06 22:46:00,39.4,30.4,30.13,WNW,283,1.0,4.0,70,0.00,,SKC,0.01,VWS V14.01,2013-01-07 03:46:00,
2013-01-06 22:51:00,39.6,30.6,30.14,WNW,285,1.0,4.0,70,0.00,,SKC,0.01,VWS V14.01,2013-01-07 03:51:00,
2013-01-06 22:56:00,39.4,30.4,30.14,WNW,285,0.0,4.0,70,0.00,,SKC,0.01,VWS V14.01,2013-01-07 03:56:00,
2013-01-06 23:01:00,39.0,30.1,30.14,WNW,285,0.0,4.0,70,0.00,,SKC,0.01,VWS V14.01,2013-01-07 04:01:00,
2013-01-06 23:06:00,38.8,30.2,30.14,NW,310,0.0,4.0,71,0.00,,SKC,0.01,VWS V14.01,2013-01-07 04:06:00,
2013-01-06 23:11:00,38.5,29.9,30.14,NW,311,0.0,4.0,71,0.00,,SKC,0.01,VWS V14.01,2013-01-07 04:11:00,
2013-01-06 23:16:00,38.5,30.3,30.14,NW,311,0.0,4.0,72,0.00,,SKC,0.01,VWS V14.01,2013-01-07 04:16:00,
2013-01-06 23:21:00,38.3,30.1,30.15,NW,309,0.0,4.0,72,0.00,,SKC,0.01,VWS V14.01,2013-01-07 04:21:00,
2013-01-06 23:26:00,37.8,29.6,30.15,NW,309,0.0,0.0,72,0.00,,SKC,0.01,VWS V14.01,2013-01-07 04:26:00,
2013-01-06 23:31:00,37.7,30.2,30.15,NW,309,0.0,0.0,74,0.00,,SKC,0.01,VWS V14.01,2013-01-07 04:31:00,
2013-01-06 23:37:00,38.0,30.1,30.15,NW,309,0.0,0.0,73,0.00,,SKC,0.01,VWS V14.01,2013-01-07 04:37:00,
2013-01-06 23:43:00,38.3,30.8,30.15,NW,307,0.0,0.0,74,0.00,,SKC,0.01,VWS V14.01,2013-01-07 04:43:00,
2013-01-06 23:49:00,39.6,31.7,30.15,WNW,293,0.0,0.0,73,0.00,,SKC,0.01,VWS V14.01,2013-01-07 04:49:00,
2013-01-06 23:55:00,40.0,31.7,30.15,WNW,293,0.0,0.0,72,0.00,,SKC,0.01,VWS V14.01,2013-01-07 04:55:00,